Tracking 30986 objects as of 9-Jul-2025
HD Live streaming from Space Station
objects crossing your sky now

DELTA 1 DEB

Track DELTA 1 DEB now!
10-day predictions


NORAD ID: 8678
Int'l Code: 1975-004F
Perigee: 738.3 km
Apogee: 993.5 km
Inclination: 97.6 °
Period: 102.1 minutes
Semi major axis: 7236 km
RCS: 0.0564 m2 (small)
Launch date: January 22, 1975
Source: United States (US)
Launch site: AIR FORCE WESTERN TEST RANGE (AFWTR)

Note: This is SATELLITE DEBRIS
Your satellite tracking list
Your tracking list is empty




NASA's NSSDC Master Catalog

Two Line Element Set (TLE):
1 08678U 75004F   25189.06419098  .00000088  00000-0  58895-4 0  9992
2 08678  97.6412 228.6878 0176312  68.9044 293.0880 14.10172920590081
Source of the keplerian elements: AFSPC